Preview of NWS' New Version of Forecast
This preview is not operational and should not be used for support decisions.

Regional Weather Roundup (RWR)

Issued by National Weather Service (NWS)

                            
000
ASUS43 KMKX 252300
RWRWI 

WISCONSIN REGIONAL WEATHER ROUNDUP
NATIONAL WEATHER SERVICE MILWAUKEE/SULLIVAN WI
600 PM CDT SUN AUG 25 2019

NOTE: "FAIR" INDICATES FEW OR NO CLOUDS BELOW 12,000 FEET WITH NO
SIGNIFICANT WEATHER AND/OR OBSTRUCTIONS TO VISIBILITY.

WIZ001-002-006>008-014>016-023>028-260000-
NORTHWEST WISCONSIN
  
CITY           SKY/WX    TMP DP  RH WIND       PRES   REMARKS
SUPERIOR ARPT  CLOUDY    71  55  55 S5        29.96F                  
ASHLAND        FAIR      72  54  53 S8        29.99F                  
HAYWARD        FAIR      68  54  60 S7        30.00F                  
SIREN          CLOUDY    69  53  57 SE10      29.98S                  
CUMBERLAND     PTSUNNY   68  52  56 SE10G17   29.99F                  
RICE LAKE      NOT AVBL                                               
CHETEK         PTSUNNY   71  55  57 SE13G18   30.00F                  
LADYSMITH      FAIR      71  55  56 S7        30.03S                  
EAU CLAIRE     NOT AVBL                                               
MENOMONIE      PTSUNNY   66  53  62 SE12      29.99S                  
NEW RICHMOND   CLOUDY    67  54  62 SE7       29.97F                  
OSCEOLA        CLOUDY    68  57  67 SE8       29.99F                  
$$
 
WIZ003>005-009-010-017-018-260000-
NORTH CENTRAL WISCONSIN
  
CITY           SKY/WX    TMP DP  RH WIND       PRES   REMARKS
MANITOWISH WTR FAIR      67  55  63 S9        30.04S                  
ARBOR VITAE    FAIR      72  58  62 S9        30.04F                  
WOODRUFF       FAIR      72  58  62 S9        30.04F                  
RHINELANDER    FAIR      67  54  63 SE8       30.05F                  
EAGLE RIVER    FAIR      68  52  58 SE9       30.05F                  
LAND O LAKES   FAIR      68  54  61 SE5       30.07S                  
PHILLIPS       FAIR      67  56  67 S7        30.02F                  
TOMAHAWK       FAIR      66  55  67 CALM      30.05F                  
MEDFORD        FAIR      65  55  68 SE6       30.03F                  
MERRILL        PTSUNNY   68  56  65 SE8G17    30.05S                  
$$
 
WIZ029-030-035-036-043>047-260000-
CENTRAL WISCONSIN
  
CITY           SKY/WX    TMP DP  RH WIND       PRES   REMARKS
WAUSAU         PTSUNNY   69  54  58 SE12      30.02F                  
MOSINEE        PTSUNNY   68  55  64 E8        30.04F                  
MARSHFIELD     FAIR      71  56  58 SE9       30.02F                  
STEVENS POINT  FAIR      68  54  59 SE9       30.04S                  
WAUPACA        CLOUDY    73  55  53 SE15      30.03F                  
WAUTOMA        CLOUDY    71  58  63 SE13      30.03                   
WISC RAPIDS    PTSUNNY   73  56  54 SE8       30.03S                  
CAMP DOUGLAS   FAIR      70  60  70 SE5       30.01S                  
$$
 
WIZ011>013-019>022-031-037>040-048>050-260000-
NORTHEAST WISCONSIN
  
CITY           SKY/WX    TMP DP  RH WIND       PRES   REMARKS
ANTIGO         FAIR      65  54  67 SE9       30.06F                  
SHAWANO        FAIR      72  56  56 SE12      30.05F                  
OCONTO         FAIR      70  55  60 S7        30.07F                  
STURGEON BAY   FAIR      69  58  67 E8        30.08F                  
GREEN BAY      FAIR      72  55  55 SE10      30.06F                  
MANITOWOC      FAIR      68  59  73 SE7       30.07F                  
APPLETON       PTSUNNY   68  54  60 SE17      30.04F                  
CLINTONVILLE   FAIR      70  55  59 SE9G16    30.04F                  
OSHKOSH        FAIR      70  55  59 SE15      30.04F                  
$$
 
WIZ032>034-041-042-053>061-260000-
SOUTHWEST WISCONSIN
  
CITY           SKY/WX    TMP DP  RH WIND       PRES   REMARKS
LA CROSSE      CLOUDY    73  57  57 SE9       29.98F                  
SPARTA         FAIR      68  57  67 SE7       30.02S                  
VIROQUA        FAIR      69  60  73 SE12      30.01F                  
BOSCOBEL       CLOUDY    71  58  63 SE3       30.00S                  
PRAIRIE DU CHI LGT RAIN  70  54  57 SE6       29.99S                  
PLATTEVILLE    CLOUDY    68  63  85 E6        30.00F                  
$$

WIZ056-057-062-063-064-067-068-260000-
SOUTH CENTRAL WISCONSIN
  
CITY           SKY/WX    TMP DP  RH WIND       PRES   REMARKS
REEDSBURG      PTSUNNY   69  58  68 E3        30.01F                  
BARABOO/DELLS  CLOUDY    70  58  66 E6        30.02S                  
LONE ROCK      NOT AVBL                                               
MINERAL POINT  LGT RAIN  63  61  94 CALM      30.02S                  
MADISON        CLOUDY    70  55  59 E10       30.01F                  
MIDDLETON      PTSUNNY   71  55  56 SE10      30.03R                  
WATERTOWN      PTSUNNY   69  57  65 E12       30.03F                  
MONROE         LGT RAIN  70  58  66 CALM      30.01F                  
JANESVILLE     CLOUDY    72  55  56 E12       30.01F                  
$$
 
WIZ051-052-058>065-066-070>072-260000-
SOUTHEAST WISCONSIN
  
CITY           SKY/WX    TMP DP  RH WIND       PRES   REMARKS
MILWAUKEE      CLOUDY    71  56  58 E10       30.04F                  
WAUKESHA       MOSUNNY   66  54  63 E12       30.06S                  
MILWAUKEE/TIMM MOSUNNY   70  50  49 E6        30.06S                  
RACINE         FAIR      71  57  61 E10       30.06F                  
KENOSHA        FAIR      72  58  61 E10       30.04F                  
FOND DU LAC    FAIR      72  55  55 SE10      30.05F                  
SHEBOYGAN      FAIR      69  56  62 SE7       30.06F                  
WEST BEND      FAIR      68  59  73 E6        30.06S                  
JUNEAU         FAIR      68  56  65 E9G16     30.05F                  
$$

LSZ147-162-260000-
LAKE SUPERIOR
  
STATION/POSITION TIME  TEMP    WIND        PRES    WAVE
                       AIR SEA DIR/SP/G            HT/PER
                 (UTC) (F)     (DEG/KT/KT) (MB)    (FT/S)
W MID LAKE BUOY  2150   65 65   50/ 10/ 10 1016.2F   1/ 4
DEVILS ISLAND    2200   66      80/ 13/ 14 1015.9F
SAXON HARBOR     2230   74     170/  3/  8 1015.2F
$$
 
LMZ867-665-643>646-260000-
LAKE MICHIGAN
  
STATION/POSITION TIME  TEMP    WIND        PRES    WAVE
                       AIR SEA DIR/SP/G            HT/PER
                 (UTC) (F)     (DEG/KT/KT) (MB)    (FT/S)
S GREEN BAY BUOY 2230   76 70  150/ 10/ 16 1018.2F
N MID LAKE BUOY  2240   69 70   70/ 12/ 14 1018.8F
NORTHPORT PIER   2240   69      50/  3/  3 1018.6F
KEWAUNEE LAKESHO 2224   70     150/  3/  5 1017.8
SHEBOYGAN LAKESH 2200   69     150/  6/  7 1018.4F
PORT WASHINGTON  2240   71     120/ 10/ 11 1018.6F
ATWATER BUOY     2230   70 69  120/ 12/ 14 1018.0F   3/ 5
S MID LAKE BUOY  2240   71 72   90/  8/ 10 1017.5F
KENOSHA   LAKESH 2200   72     110/ 13/ 14 1016.9
$$

TC  - TEMPERATURE IN CELSIUS
VSB - VISIBILITY IN STATUTE MILES
WCI - WIND CHILL INDEX
HX  - HEAT INDEX